Regional Weather Roundup
Issued by NWS

Home | Current Version | Previous Version | Graphics & Text | Print | Product List | Glossary On
Versions: 1 2 3 4 5 6 7 8 9 10 11 12 13 14 15 16 17 18 19 20 21 22 23 24 25 26 27 28 29 30 31 32 33 34 35 36 37 38 39 40 41 42 43 44 45 46 47 48 49 50
502
ASUS44 KLIX 011905
RWRLA
LOUISIANA WEATHER ROUNDUP
NATIONAL WEATHER SERVICE NEW ORLEANS LA
200 PM CDT WED OCT 01 2014

NOTE: "FAIR" INDICATES FEW OR NO CLOUDS BELOW 12,000 FEET WITH NO
      SIGNIFICANT WEATHER AND/OR OBSTRUCTIONS TO VISIBILITY.
      SKY/WX - SKY CONDITION AND SIGNIFICANT WEATHER.
      TMP - AIR TEMPERATURE.    DP   - DEWPOINT TEMPERATURE.
      RH  - RELATIVE HUMIDITY.  PRES - PRESSURE.
      HX  - HEAT INDEX.         WCI  - WIND CHILL INDEX.

*  THESE STATIONS ARE NOT NWS OR FAA STATIONS AND ARE NOT UNDER
   NWS QUALITY CONTROL.

LAZ040-048-061>063-065-066-069-012000-
SOUTHEAST LOUISIANA

CITY           SKY/WX    TMP DP  RH WIND       PRES   REMARKS
N.O. AUDUBON     N/A     82  76  82 MISG        N/A
N.O. INTL ARPT PTSUNNY   83  73  72 E7        29.90F
N.O. LAKEFRONT CLOUDY    82  73  74 SE12      29.91F
N.O. DOWNTOWN* FAIR      81  72  74 SE6       29.91F
SLIDELL        CLOUDY    83  71  67 E8        29.91F
BATON ROUGE    CLOUDY    84  75  74 SE12      29.88F
BOOTHVILLE     CLOUDY    80  75  84 SE8       29.92F
BELLE CHASSE   PTSUNNY   82  71  69 SE10      29.90F
BOGALUSA*        N/A     85  70  60 SE6       29.92F
GALLIANO*      NOT AVBL
NEW ROADS*     CLOUDY    82  73  76 S9        29.88F
GONZALES*      CLOUDY    81  79  94 CALM      29.89F
HAMMOND*       CLOUDY    84  72  65 SE14      29.92S
HOUMA*         PTSUNNY  N/A N/A N/A SE12      29.90F
PORT FOURCHON* PTCLDY    79  75  89 SE10G17   29.94S FOG

$$

LAZ041-044-053-054-012000-
SOUTHWEST LOUISIANA

CITY           SKY/WX    TMP DP  RH WIND       PRES   REMARKS
LAKE CHARLES   PTSUNNY   87  75  67 S7        29.84F HX  96
LAFAYETTE      PTSUNNY   84  76  76 E5        29.88F
PATTERSON      PTSUNNY   86  79  79 S10       29.90F HX  99
SALT POINT       N/A     86  78  77 VRB6      29.87F HX  98
NEW IBERIA     CLOUDY    85  75  72 S7        29.88F
CHENAULT AIRPK PTSUNNY   88  75  66 S12       29.85F HX  97

$$

LAZ027-028-012000-
CENTRAL LOUISIANA

CITY           SKY/WX    TMP DP  RH WIND       PRES   REMARKS
FORT POLK      PTSUNNY   86  75  69 S8        29.85F
ALEXANDRIA INT PTSUNNY   88  71  57 SE10      29.85F
ALEXANDRIA     CLOUDY    86  73  65 S8        29.87F

$$

LAZ001-002-012000-
NORTHWEST LOUISIANA

CITY           SKY/WX    TMP DP  RH WIND       PRES   REMARKS
SHREVEPORT     CLOUDY    85  73  67 SE12      29.82F
BARKSDALE AFB  PTSUNNY   81  74  78 SE10      29.84F
DTN SHREVEPORT PTSUNNY   81  71  71 SE9       29.84F

$$

LAZ014-016-012000-
NORTHEAST LOUISIANA

CITY           SKY/WX    TMP DP  RH WIND       PRES   REMARKS
MONROE         PTSUNNY   85  70  60 S8        29.88F
TALLULAH       MOSUNNY   89  67  47 SE8       29.88F

$$




USA.gov is the U.S. government's official web portal to all federal, state and local government web resources and services.